Location: Unspecified
(0.0000°N, 0.0000°E)
Time: 08:55:22
(UTC+00:00)

Midas 7 - Visible Passes

Search period start: 10 December 2025 00:00
Search period end: 20 December 2025 00:00
Orbit: 3670 x 3732 km, 88.4° (Epoch: 09 December)

Date Brightness Start Highest point End Pass type
(mag) Time Alt. Az. Time Alt. Az. Time Alt. Az.
10 Dec 6.6 21:02:28 68° NE 21:05:21 75° E 21:24:19 10° S visible
10 Dec 8.0 23:50:14 16° W 23:51:14 16° W 00:01:09 10° WSW visible
11 Dec 7.2 19:24:40 24° ENE 19:29:35 27° E 19:43:53 10° SSE visible
11 Dec 7.0 22:12:26 52° WNW 22:15:39 56° W 22:34:05 10° SSW visible
12 Dec 6.6 20:34:30 52° NE 20:39:49 64° E 20:58:27 10° S visible
12 Dec 7.8 23:22:14 21° WNW 23:25:48 22° W 23:38:45 10° SW visible
13 Dec 7.4 18:56:22 16° ENE 19:04:07 21° E 19:16:16 10° SE visible
13 Dec 6.8 21:44:05 50° NNW 21:50:08 66° W 22:09:00 10° SSW visible
14 Dec 6.8 20:05:37 36° NE 20:14:18 54° E 20:32:22 10° SSE visible
14 Dec 7.7 22:53:16 23° NW 23:00:20 28° W 23:15:19 10° SW visible
15 Dec 7.6 18:29:36 10° ENE 18:38:40 15° E 18:47:32 10° SE visible
15 Dec 6.7 21:05:29 10° N 21:24:36 78° W 21:43:43 10° S visible
16 Dec 6.9 19:31:07 10° NNE 19:48:47 45° E 20:06:04 10° SSE visible
16 Dec 7.5 22:18:42 10° NNW 22:34:52 36° W 22:51:17 10° SW visible
17 Dec 6.6 20:39:50 10° N 20:59:05 89° W 21:18:15 10° S visible
18 Dec 7.1 19:06:38 10° NNE 19:23:17 37° E 19:39:31 10° SSE visible
18 Dec 7.3 21:52:06 10° NNW 22:09:22 44° W 22:26:51 10° SSW visible
19 Dec 6.6 20:14:20 10° N 20:33:33 79° E 20:52:36 10° S visible
19 Dec 8.1 23:11:06 10° NW 23:19:26 14° W 23:27:54 10° WSW visible
